Mekoryuk, AK

6:22 PM AKST on November 18, 2017 (GMT -0900)
Mekoryuk

Weather History for PAMY - February, 2014

Change the Weather History Date:

Tuesday, February 25, 2014

  Actual Average Record
Temperature  
Mean Temperature 29 °F -  
Max Temperature 32 °F 20 °F 48 °F (2009)
Min Temperature 26 °F 12 °F -20 °F (1984)
Degree Days  
Heating Degree Days 36    
Moisture  
Dew Point 24 °F    
Average Humidity 80    
Maximum Humidity 86    
Minimum Humidity 74    
Precipitation  
Precipitation 0.00 in - - ()
Sea Level Pressure  
Sea Level Pressure 29.76 in    
Wind  
Wind Speed 16 mph (ESE)    
Max Wind Speed 22 mph    
Max Gust Speed -    
Visibility 4 miles    
Events      
Averages and records for this station are not official NWS values.
T = Trace of Precipitation, MM = Missing Value Source: NWS Daily Summary

Daily Weather History Graph

Daily Weather History Graph

Search for Another Location

Airport or City:

Trip Planner

Search our weather history database for the weather conditions in past years. The results will help you decide how hot, cold, wet, or windy it might be!

Date:

Astronomy

Feb. 25, 2014 Rise Set
Actual Time 9:15 AM AKST 7:22 PM AKST
Civil Twilight 8:32 AM AKST 8:05 PM AKST
Nautical Twilight 7:43 AM AKST 8:53 PM AKST
Astronomical Twilight 6:54 AM AKST 9:43 PM AKST
Moon 7:06 AM AKST (2/25) 2:59 PM AKST (2/25)
Length of Visible Light 11h 32m
Length of Day
10h 07m
Waning Crescent, 17% of the Moon is Illuminated
Feb 25
Waning Crescent
Feb 28
New
Mar 8
First Quarter
Mar 16
Full
Mar 23
Last Quarter

Hourly Weather History & Observations

Time (AKST) Temp. Windchill Dew Point Humidity Pressure Visibility Wind Dir Wind Speed Gust Speed Precip Events Conditions
12:16 AM 30.2 °F 18.9 °F 24.8 °F 80% 29.74 in 3.0 mi ESE 16.1 mph - N/A   Overcast
12:36 AM 30.2 °F 18.5 °F 26.6 °F 86% 29.74 in 3.0 mi ESE 17.3 mph - N/A   Overcast
12:56 AM 30.2 °F 18.1 °F 26.6 °F 86% 29.74 in 3.0 mi ESE 18.4 mph - N/A   Overcast
1:16 AM 30.2 °F 18.1 °F 26.6 °F 86% 29.74 in 3.0 mi ESE 18.4 mph - N/A   Overcast
1:36 AM 30.2 °F 17.8 °F 26.6 °F 86% 29.75 in 4.0 mi ESE 19.6 mph - N/A   Overcast
1:56 AM 32.0 °F 20.8 °F 26.6 °F 80% 29.76 in 3.0 mi ESE 17.3 mph - N/A   Overcast
2:16 AM 32.0 °F 20.8 °F 26.6 °F 80% 29.76 in 2.0 mi ESE 17.3 mph - N/A   Overcast
2:36 AM 30.2 °F 18.1 °F 26.6 °F 86% 29.76 in 3.0 mi ESE 18.4 mph - N/A   Overcast
2:56 AM 30.2 °F 17.4 °F 26.6 °F 86% 29.77 in 3.0 mi ESE 20.7 mph - N/A   Overcast
3:16 AM 32.0 °F 20.1 °F 26.6 °F 80% 29.77 in 2.5 mi SE 19.6 mph - N/A   Overcast
3:36 AM 30.2 °F 17.8 °F 26.6 °F 86% 29.77 in 4.0 mi ESE 19.6 mph - N/A   Overcast
3:56 AM 32.0 °F 20.1 °F 26.6 °F 80% 29.77 in 2.5 mi ESE 19.6 mph - N/A   Overcast
4:16 AM 30.2 °F 17.8 °F 26.6 °F 86% 29.77 in 2.0 mi ESE 19.6 mph - N/A   Overcast
4:36 AM 30.2 °F 17.8 °F 26.6 °F 86% 29.77 in 4.0 mi ESE 19.6 mph - N/A   Overcast
4:56 AM 30.2 °F 17.1 °F 26.6 °F 86% 29.77 in 2.5 mi SE 21.9 mph - N/A   Overcast
5:16 AM 30.2 °F 17.8 °F 26.6 °F 86% 29.77 in 4.0 mi SE 19.6 mph - N/A   Overcast
5:36 AM 30.2 °F 18.1 °F 26.6 °F 86% 29.78 in 6.0 mi SE 18.4 mph - N/A   Overcast
5:56 AM 30.2 °F 17.8 °F 24.8 °F 80% 29.78 in 4.0 mi SE 19.6 mph - N/A   Overcast
6:16 AM 30.2 °F 17.4 °F 24.8 °F 80% 29.78 in 3.0 mi SE 20.7 mph - N/A   Overcast
6:36 AM 30.2 °F 19.3 °F 24.8 °F 80% 29.79 in 5.0 mi SE 15.0 mph - N/A   Overcast
6:56 AM 30.2 °F 19.3 °F 24.8 °F 80% 29.79 in 0.8 mi SE 15.0 mph - N/A   Overcast
7:16 AM 30.2 °F 19.8 °F 24.8 °F 80% 29.80 in 0.5 mi SE 13.8 mph - N/A   Overcast
7:36 AM 30.2 °F 19.3 °F 24.8 °F 80% 29.80 in 0.8 mi SE 15.0 mph - N/A   Overcast
7:56 AM 28.4 °F 18.0 °F 23.0 °F 80% 29.81 in 1.8 mi SE 12.7 mph - N/A   Overcast
8:16 AM 28.4 °F 18.5 °F 21.2 °F 74% 29.81 in 1.8 mi ESE 11.5 mph - N/A   Overcast
8:36 AM 28.4 °F 18.0 °F 21.2 °F 74% 29.81 in 0.8 mi ESE 12.7 mph - N/A   Overcast
8:56 AM 26.6 °F 17.5 °F 21.2 °F 80% 29.82 in 0.8 mi ESE 9.2 mph - N/A   Overcast
9:16 AM 26.6 °F 18.2 °F 21.2 °F 80% 29.83 in 1.0 mi ESE 8.1 mph - N/A   Overcast
9:36 AM 26.6 °F 20.0 °F 19.4 °F 74% 29.84 in 4.0 mi East 5.8 mph - N/A   Scattered Clouds
9:56 AM 26.6 °F 17.5 °F 21.2 °F 80% 29.84 in 5.0 mi East 9.2 mph - N/A   Mostly Cloudy
10:16 AM 26.6 °F 16.2 °F 21.2 °F 80% 29.84 in 0.5 mi East 11.5 mph - N/A   Overcast
10:36 AM 26.6 °F 16.2 °F 21.2 °F 80% 29.84 in 0.2 mi ESE 11.5 mph - N/A   Overcast
10:56 AM 26.6 °F 16.8 °F 21.2 °F 80% 29.84 in 0.5 mi ESE 10.4 mph - N/A   Overcast
11:16 AM 26.6 °F 15.2 °F 21.2 °F 80% 29.84 in 1.8 mi ESE 13.8 mph - N/A   Overcast
11:36 AM 26.6 °F 16.2 °F 21.2 °F 80% 29.84 in 0.5 mi East 11.5 mph - N/A   Overcast
11:56 AM 26.6 °F 18.2 °F 23.0 °F 86% 29.85 in 5.0 mi ESE 8.1 mph - N/A   Overcast
12:16 PM 28.4 °F 18.5 °F 23.0 °F 80% 29.84 in 0.5 mi ESE 11.5 mph - N/A   Overcast
12:36 PM 30.2 °F 19.3 °F 24.8 °F 80% 29.84 in 0.8 mi ESE 15.0 mph - N/A   Overcast
12:56 PM 30.2 °F 18.5 °F 24.8 °F 80% 29.84 in 5.0 mi SE 17.3 mph - N/A   Overcast
1:16 PM 30.2 °F 18.1 °F 26.6 °F 86% 29.84 in 7.0 mi SE 18.4 mph - N/A   Overcast
1:36 PM 30.2 °F 18.9 °F 24.8 °F 80% 29.83 in 2.0 mi SE 16.1 mph - N/A   Overcast
1:56 PM 30.2 °F 19.8 °F 24.8 °F 80% 29.83 in 7.0 mi ESE 13.8 mph - N/A   Mostly Cloudy
3:16 PM 28.4 °F 16.2 °F 24.8 °F 86% 29.81 in 0.5 mi ESE 17.3 mph - N/A   Overcast
5:36 PM 30.2 °F 19.8 °F 26.6 °F 86% 29.77 in 4.0 mi East 13.8 mph - N/A   Overcast
5:56 PM 30.2 °F 22.6 °F 26.6 °F 86% 29.77 in 10.0 mi ENE 8.1 mph - N/A   Mostly Cloudy
6:16 PM 28.4 °F 19.1 °F 24.8 °F 86% 29.76 in 10.0 mi ENE 10.4 mph - N/A   Scattered Clouds
6:36 PM 28.4 °F 18.5 °F 23.0 °F 80% 29.75 in 10.0 mi NE 11.5 mph - N/A   Mostly Cloudy
6:56 PM 28.4 °F 17.0 °F 23.0 °F 80% 29.74 in 10.0 mi ENE 15.0 mph - N/A   Overcast
7:16 PM 28.4 °F 17.0 °F 21.2 °F 74% 29.74 in 10.0 mi NE 15.0 mph - N/A   Scattered Clouds
7:36 PM 28.4 °F 17.5 °F 21.2 °F 74% 29.72 in 10.0 mi NE 13.8 mph - N/A   Clear
7:56 PM 28.4 °F 16.6 °F 21.2 °F 74% 29.71 in 10.0 mi NE 16.1 mph - N/A   Partly Cloudy
8:16 PM 28.4 °F 17.5 °F 21.2 °F 74% 29.70 in 10.0 mi NE 13.8 mph - N/A   Partly Cloudy
8:36 PM 28.4 °F 16.6 °F 21.2 °F 74% 29.69 in 10.0 mi NE 16.1 mph - N/A   Scattered Clouds
8:56 PM 28.4 °F 15.8 °F 21.2 °F 74% 29.68 in 10.0 mi ENE 18.4 mph - N/A   Mostly Cloudy
9:16 PM 28.4 °F 17.5 °F 21.2 °F 74% 29.67 in 10.0 mi ENE 13.8 mph - N/A   Overcast
9:36 PM 28.4 °F 18.5 °F 21.2 °F 74% 29.66 in 10.0 mi ENE 11.5 mph - N/A   Overcast
9:56 PM 28.4 °F 17.5 °F 21.2 °F 74% 29.65 in 10.0 mi ENE 13.8 mph - N/A   Overcast
10:16 PM 28.4 °F 15.8 °F 21.2 °F 74% 29.64 in 10.0 mi ENE 18.4 mph - N/A   Overcast
10:36 PM 28.4 °F 15.8 °F 21.2 °F 74% 29.62 in 10.0 mi ENE 18.4 mph - N/A   Overcast
10:56 PM 28.4 °F 16.2 °F 21.2 °F 74% 29.62 in 2.0 mi ENE 17.3 mph - N/A   Overcast
11:16 PM 28.4 °F 15.8 °F 21.2 °F 74% 29.61 in 4.0 mi ENE 18.4 mph - N/A   Overcast
11:36 PM 28.4 °F 15.1 °F 21.2 °F 74% 29.59 in 1.5 mi ENE 20.7 mph - N/A   Overcast
11:56 PM 28.4 °F 17.0 °F 21.2 °F 74% 29.58 in 2.0 mi ENE 15.0 mph - N/A   Overcast